Orbital Elements at Epoch 2459000.5 (2020-May-31.0) TDB
Reference: JPL 20 (heliocentric ecliptic J2000)
Element | Value | Uncertainty (1-sigma) | Units |
e | .08513160492004589 | 4.5963e-08 | |
a | 2.925485751712693 | 2.1056e-08 | au |
q | 2.676434454498664 | 1.3624e-07 | au |
i | 2.951600384185801 | 6.1948e-06 | deg |
node | 130.1359401048176 | 0.0001353 | deg |
peri | 291.038771889188 | 0.00014333 | deg |
M | 132.9272985298159 | 4.6838e-05 | deg |
tp | 2458325.650258742512 (2018-Jul-26.15025874) | 0.00023597 | TDB |
period | 1827.660003172353 5.00 | 1.9732e-05 5.402e-08 | d yr |
n | .1969731784769221 | 2.1266e-09 | deg/d |
Q | 3.174537048926721 | 2.2849e-08 | au |
|
| | Orbit Determination Parameters
Additional Information
|